New Bern, NC

5:51 AM EDT on August 20, 2019 (GMT -0400)
Craven County Regional

Weather History for KEWN - July, 2019

Change the Weather History Date:

Sunday, July 21, 2019

  Actual Average Record
Temperature  
Mean Temperature 87 °F 81 °F  
Max Temperature 97 °F 90 °F 103 °F (1952)
Min Temperature 77 °F 72 °F 64 °F (1973)
Degree Days  
Heating Degree Days 0 0  
Month to date heating degree days 0 0  
Since 1 June heating degree days 0 1  
Since 1 July heating degree days 0 0  
Cooling Degree Days 22 16  
Month to date cooling degree days 391 329  
Year to date cooling degree days 1186 937  
Since 1 June cooling degree days 767 694  
Growing Degree Days 36 (Base 50)    
Moisture  
Dew Point 76 °F    
Average Humidity 71    
Maximum Humidity 94    
Minimum Humidity 48    
Precipitation  
Precipitation 0.00 in 0.21 in 1.32 in (2002)
Month to date precipitation 4.26 4.02  
Year to date precipitation 22.94 28.00  
Snow  
Snow 0.00 in - - ()
Month to date snowfall 0.0  
Since 1 July snowfall 0.0  
Snow Depth 0.00 in    
Sea Level Pressure  
Sea Level Pressure 29.99 in    
Wind  
Wind Speed 9 mph (SW)    
Max Wind Speed 17 mph    
Max Gust Speed 23 mph    
Visibility 10 miles    
Events      
T = Trace of Precipitation, MM = Missing Value Source: NWS Daily Summary

Daily Weather History Graph

Daily Weather History Graph

Search for Another Location

Airport or City:

Astronomy

Jul. 21, 2019 Rise Set
Actual Time 6:09 AM EDT 8:19 PM EDT
Civil Twilight 5:40 AM EDT 8:48 PM EDT
Nautical Twilight 5:05 AM EDT 9:23 PM EDT
Astronomical Twilight 4:27 AM EDT 10:00 PM EDT
Moon 11:22 PM EDT (7/21) 10:19 AM EDT (7/21)
Length of Visible Light 15h 07m
Length of Day
14h 10m
Waning Gibbous, 80% of the Moon is Illuminated
Jul 21
Waning Gibbous
Jul 24
Last Quarter
Jul 31
New
Aug 7
First Quarter
Aug 15
Full

Hourly Weather History & Observations

Time (EDT) Temp. Heat Index Dew Point Humidity Pressure Visibility Wind Dir Wind Speed Gust Speed Precip Events Conditions
12:54 AM 80.1 °F 85.1 °F 75.0 °F 85% 30.01 in 10.0 mi SW 5.8 mph - N/A   Clear
1:54 AM 80.1 °F 84.5 °F 73.9 °F 81% 30.00 in 10.0 mi SW 5.8 mph - N/A   Clear
2:54 AM 79.0 °F - 73.9 °F 84% 30.00 in 10.0 mi WSW 5.8 mph - N/A   Clear
3:54 AM 78.1 °F - 73.9 °F 87% 29.99 in 10.0 mi SW 5.8 mph - N/A   Clear
4:54 AM 78.1 °F - 73.9 °F 87% 29.99 in 10.0 mi SW 5.8 mph - N/A   Clear
5:54 AM 77.0 °F - 75.0 °F 94% 29.99 in 10.0 mi SW 5.8 mph - N/A   Clear
6:54 AM 77.0 °F - 75.0 °F 94% 30.01 in 10.0 mi SW 6.9 mph - N/A   Clear
7:54 AM 81.0 °F 87.3 °F 75.9 °F 85% 30.00 in 10.0 mi SW 9.2 mph - N/A   Clear
8:54 AM 84.0 °F 92.6 °F 75.9 °F 76% 30.01 in 10.0 mi WSW 6.9 mph - N/A   Clear
9:54 AM 87.1 °F 96.3 °F 75.0 °F 67% 30.01 in 10.0 mi WSW 12.7 mph - N/A   Clear
10:54 AM 90.0 °F 101.3 °F 75.9 °F 63% 30.01 in 10.0 mi WSW 10.4 mph - N/A   Clear
11:54 AM 91.9 °F 103.9 °F 75.9 °F 59% 30.01 in 10.0 mi WSW 13.8 mph 20.7 mph N/A   Clear
12:54 PM 93.0 °F 104.6 °F 75.0 °F 56% 30.00 in 10.0 mi WSW 13.8 mph - N/A   Partly Cloudy
1:54 PM 95.0 °F 108.2 °F 75.9 °F 54% 29.98 in 10.0 mi WSW 9.2 mph - N/A   Clear
2:54 PM 96.1 °F 107.1 °F 73.9 °F 49% 29.96 in 10.0 mi SW 12.7 mph 19.6 mph N/A   Partly Cloudy
3:54 PM 96.1 °F 105.6 °F 73.0 °F 47% 29.95 in 10.0 mi SW 12.7 mph 17.3 mph N/A   Scattered Clouds
4:54 PM 96.1 °F 107.1 °F 73.9 °F 49% 29.95 in 10.0 mi SW 8.1 mph - N/A   Partly Cloudy
5:54 PM 93.0 °F 109.7 °F 79.0 °F 63% 29.95 in 10.0 mi South 12.7 mph - N/A   Scattered Clouds
6:54 PM 89.1 °F 103.2 °F 78.1 °F 70% 29.95 in 10.0 mi South 11.5 mph - N/A   Partly Cloudy
7:54 PM 87.1 °F 98.8 °F 77.0 °F 72% 29.96 in 10.0 mi SSW 9.2 mph - N/A   Clear
8:54 PM 84.0 °F 93.7 °F 77.0 °F 79% 29.97 in 10.0 mi SSW 9.2 mph - N/A   Clear
9:54 PM 82.9 °F 91.8 °F 77.0 °F 82% 29.99 in 10.0 mi SSW 10.4 mph - N/A   Clear
10:54 PM 82.0 °F 90.2 °F 77.0 °F 85% 29.99 in 10.0 mi SSW 10.4 mph - N/A   Clear
11:54 PM 81.0 °F 87.9 °F 77.0 °F 88% 30.00 in 10.0 mi SW 8.1 mph - N/A   Clear